Location: Unspecified
(0.0000°N, 0.0000°E)
Time: 04:17:40
(UTC+00:00)

Kosmos-2233 - Pass Details

Date: 24 February 2024
Orbit: 950 x 1007 km, 82.9° (Epoch: 24 April)

Event Time Altitude Azimuth Distance (km) Brightness Sun altitude
Rises 19:47:35 0° 192° (SSW) 3,624 8.8 -23.3°
Reaches altitude 10° 19:50:07 10° 196° (SSW) 2,680 8.1 -23.9°
Maximum altitude 19:56:04 55° 273° (W) 1,136 6.1 -25.3°
Drops below altitude 10° 20:02:05 10° 350° (N) 2,699 7.8 -26.8°
Sets 20:04:40 0° 354° (N) 3,652 8.5 -27.5°
